CW5333 Weather Reports


time (UTC)temp
F
wind
direction
speed
knots
gust
knots
rain 1hr
in
rain 24hr
in
rain mn
in
humidity
%
barometer
mb
20260505214303 48 50 4.3 7.8 0.00 0.00 0.00 90 1011.5
20260505212804 48 49 4.3 7.0 0.00 0.00 0.00 90 1011.5
20260505212305 48 65 3.5 7.0 0.00 0.00 0.00 90 1011.6
20260505211804 48 58 2.6 6.1 0.00 0.00 0.00 90 1011.6
20260505211304 48 55 3.5 6.1 0.00 0.00 0.00 89 1011.8
20260505205804 48 49 5.2 8.7 0.00 0.00 0.00 88 1011.7
20260505204803 48 43 5.2 7.0 0.00 0.00 0.00 88 1011.3
20260505204303 48 36 5.2 8.7 0.00 0.00 0.00 88 1011.4
20260505203804 48 55 4.3 7.8 0.00 0.00 0.00 88 1011.3
20260505203303 48 38 5.2 7.8 0.00 0.00 0.00 87 1011.6
20260505201804 48 50 6.1 8.7 0.00 0.00 0.00 86 1011.5
20260505200803 48 48 4.3 7.0 0.00 0.00 0.00 85 1011.7
20260505200304 48 32 5.2 10.4 0.00 0.00 0.00 84 1011.8
20260505195804 49 40 5.2 7.8 0.00 0.00 0.00 83 1011.7
20260505195305 49 46 5.2 8.7 0.00 0.00 0.00 82 1011.7
20260505194804 49 46 6.1 8.7 0.00 0.00 0.00 82 1011.7
20260505194304 49 41 6.1 8.7 0.00 0.00 0.00 81 1012.1
20260505193804 49 17 5.2 7.8 0.00 0.00 0.00 81 1012.0
20260505193304 49 29 6.1 10.4 0.00 0.00 0.00 80 1011.9
20260505192804 49 36 5.2 8.7 0.00 0.00 0.00 81 1011.8
20260505191804 49 33 4.3 7.0 0.00 0.00 0.00 83 1011.5
20260505190804 49 21 4.3 7.8 0.00 0.00 0.00 86 1011.5
20260505190303 49 46 4.3 7.8 0.00 0.00 0.00 86 1011.3
20260505185804 49 40 5.2 8.7 0.00 0.00 0.00 86 1011.6
20260505185305 49 48 4.3 7.8 0.00 0.00 0.00 86 1011.6
20260505184804 49 22 4.3 7.0 0.00 0.00 0.00 86 1011.7
20260505184304 49 50 5.2 7.8 0.00 0.00 0.00 86 1011.7
20260505183803 49 53 5.2 8.7 0.00 0.00 0.00 86 1011.5
20260505183304 49 43 4.3 10.4 0.00 0.00 0.00 86 1011.6
20260505182306 49 41 5.2 10.4 0.00 0.00 0.00 86 1011.5
20260505181803 48 39 7.0 8.7 0.00 0.00 0.00 86 1011.7
20260505181304 48 52 6.1 8.7 0.00 0.00 0.00 86 1011.7
20260505180804 48 54 5.2 8.7 0.00 0.00 0.00 86 1011.9
20260505180303 48 54 6.1 10.4 0.00 0.00 0.00 85 1011.8
20260505175803 48 49 6.1 10.4 0.00 0.00 0.00 85 1011.9
20260505175305 48 37 5.2 11.3 0.00 0.00 0.00 84 1011.8
20260505174304 48 41 6.1 12.2 0.00 0.00 0.00 84 1011.5
20260505173803 48 47 5.2 10.4 0.00 0.00 0.00 84 1011.4
20260505173303 48 58 6.1 13.9 0.00 0.00 0.00 84 1011.3
20260505172305 48 51 7.0 12.2 0.00 0.00 0.00 83 1011.3
20260505171803 48 56 7.8 11.3 0.00 0.00 0.00 83 1011.2
20260505171304 48 57 6.1 12.2 0.00 0.00 0.00 84 1011.4
20260505170803 48 40 6.1 12.2 0.00 0.00 0.00 85 1011.5
20260505170303 48 36 6.1 12.2 0.00 0.00 0.00 85 1011.5
20260505165306 48 48 5.2 8.7 0.00 0.00 0.00 84 1012.0
20260505164804 48 39 5.2 8.7 0.00 0.00 0.00 83 1011.7
20260505164304 48 57 5.2 11.3 0.00 0.00 0.00 82 1011.5
20260505163804 48 27 7.0 10.4 0.00 0.00 0.00 82 1011.7
20260505163303 49 44 6.1 10.4 0.00 0.00 0.00 80 1011.7
20260505162804 49 35 6.1 13.0 0.00 0.00 0.00 78 1011.9
20260505162306 49 40 4.3 12.2 0.00 0.00 0.00 78 1012.0
20260505161804 49 37 5.2 12.2 0.00 0.00 0.00 79 1011.6
20260505161303 50 38 6.1 10.4 0.00 0.00 0.00 79 1011.5
20260505160303 50 44 7.8 12.2 0.00 0.00 0.00 80 1011.4
20260505153303 50 41 6.1 10.4 0.00 0.00 0.00 82 1010.9
20260505152305 50 49 7.0 13.9 0.00 0.00 0.00 82 1010.6
20260505151304 50 60 7.8 12.2 0.00 0.00 0.00 84 1010.4
20260505150803 50 50 6.1 12.2 0.00 0.00 0.00 85 1010.4
20260505150304 50 56 7.8 12.2 0.00 0.00 0.00 86 1010.5
20260505140303 49 31 5.2 7.8 0.00 0.00 0.00 85 1011.3
20260505130304 50 42 5.2 10.4 0.00 0.00 0.00 86 1009.1
20260505123804 50 28 2.6 7.0 0.00 0.00 0.00 86 1008.8
20260505123303 50 41 5.2 11.3 0.00 0.00 0.00 85 1008.9
20260505122804 50 26 4.3 8.7 0.00 0.00 0.00 85 1009.1
20260505122305 49 33 5.2 12.2 0.00 0.00 0.00 85 1009.2
20260505121804 49 61 6.1 11.3 0.00 0.00 0.00 86 1008.5
20260505121304 49 56 5.2 7.8 0.00 0.00 0.00 86 1008.8
20260505120804 49 356 5.2 7.8 0.00 0.00 0.00 86 1009.8
20260505120304 49 35 5.2 8.7 0.00 0.00 0.00 86 1009.2
20260505114804 50 46 7.8 11.3 0.00 0.00 0.00 86 1008.0
20260505114304 50 41 5.2 8.7 0.00 0.00 0.00 85 1008.4
20260505113803 50 48 3.5 12.2 0.00 0.00 0.00 85 1008.4
20260505113304 50 39 6.1 12.2 0.00 0.00 0.00 86 1007.9
20260505112803 50 56 7.0 8.7 0.00 0.00 0.00 86 1007.8
20260505112305 50 44 6.1 11.3 0.00 0.00 0.00 86 1008.0
20260505111803 50 44 7.0 11.3 0.00 0.00 0.00 87 1007.8
20260505111304 50 54 5.2 10.4 0.00 0.00 0.00 88 1007.9
20260505110304 50 32 5.2 12.2 0.00 0.00 0.00 89 1008.1
20260505101804 51 44 5.2 8.7 0.00 0.00 0.00 90 1007.8
20260505101303 51 30 2.6 7.0 0.00 0.00 0.00 90 1008.1
20260505100804 51 33 2.6 7.0 0.00 0.00 0.00 89 1008.3
20260505095804 52 3 6.1 11.3 0.00 0.00 0.00 88 1007.0
20260505095305 52 62 7.8 11.3 0.00 0.00 0.00 87 1006.7
20260505094804 52 63 6.1 8.7 0.00 0.00 0.00 86 1007.8
20260505094303 52 29 5.2 7.8 0.00 0.00 0.00 87 1008.2
20260505093804 52 40 4.3 10.4 0.00 0.00 0.00 88 1008.1
20260505093303 52 38 4.3 10.4 0.00 0.00 0.00 88 1008.0
20260505092804 53 35 6.1 10.4 0.00 0.00 0.00 88 1007.7
20260505092305 53 15 4.3 7.8 0.00 0.00 0.00 89 1007.8
20260505091805 53 22 4.3 8.7 0.00 0.00 0.00 89 1007.4
20260505090803 53 56 6.1 12.2 0.00 0.00 0.00 90 1006.0
20260505090303 53 64 7.8 15.6 0.00 0.00 0.00 90 1006.0
20260505085804 53 53 7.8 12.2 0.00 0.00 0.00 90 1006.0
20260505085305 53 48 7.0 14.8 0.00 0.00 0.00 89 1006.5
20260505084803 53 52 7.0 11.3 0.00 0.00 0.00 88 1006.5
20260505084304 53 47 9.6 14.8 0.00 0.00 0.00 89 1006.5
20260505083804 54 45 7.8 13.0 0.00 0.00 0.00 90 1006.8
20260505082305 55 40 8.7 13.9 0.00 0.00 0.00 90 1006.1
20260505081803 55 29 7.0 12.2 0.00 0.00 0.00 90 1006.1
20260505081303 55 19 7.8 13.0 0.00 0.00 0.00 90 1006.2
20260505080803 56 27 7.8 12.2 0.00 0.00 0.00 89 1006.0
20260505080304 56 23 7.8 12.2 0.00 0.00 0.00 89 1006.0
20260505075804 56 27 7.8 13.9 0.00 0.00 0.00 88 1005.7
20260505075304 57 33 7.0 13.0 0.00 0.00 0.00 86 1005.4
20260505074804 57 34 7.8 13.0 0.00 0.00 0.00 86 1005.6
20260505073804 61 12 7.8 13.9 0.00 0.00 0.00 78 1005.6
20260505073304 64 356 7.8 17.4 0.00 0.00 0.00 71 1005.9
20260505072803 67 301 10.4 24.3 0.00 0.00 0.00 67 1005.9
20260505072305 67 280 3.5 7.0 0.00 0.00 0.00 74 1004.5
20260505071803 67 259 2.6 4.3 0.00 0.00 0.00 73 1004.3
20260505071304 67 242 3.5 5.2 0.00 0.00 0.00 72 1004.3
20260505070803 67 233 4.3 7.0 0.00 0.00 0.00 72 1004.4
20260505070304 67 244 2.6 6.1 0.00 0.00 0.00 72 1004.3
20260505065804 67 237 4.3 6.1 0.00 0.00 0.00 72 1004.3
20260505065304 67 244 4.3 7.0 0.00 0.00 0.00 72 1004.2
20260505064803 67 220 4.3 7.0 0.00 0.00 0.00 72 1004.1
20260505064303 67 217 2.6 5.2 0.00 0.00 0.00 71 1004.0
20260505063304 67 219 3.5 6.1 0.00 0.00 0.00 72 1004.1
20260505062803 67 218 3.5 7.0 0.00 0.00 0.00 72 1004.2
20260505062304 67 234 4.3 6.1 0.00 0.00 0.00 71 1004.4
20260505061804 68 233 4.3 5.2 0.00 0.00 0.00 71 1004.3
20260505061304 68 220 3.5 6.1 0.00 0.00 0.00 71 1004.3
20260505060803 68 211 3.5 6.1 0.00 0.00 0.00 71 1004.2
20260505055803 68 211 1.7 7.0 0.00 0.00 0.00 71 1004.0
20260505055304 68 196 2.6 5.2 0.00 0.00 0.00 71 1004.1
20260505054804 68 202 3.5 6.1 0.00 0.00 0.00 70 1004.1
20260505054303 68 207 3.5 6.1 0.00 0.00 0.00 70 1004.0
20260505053804 68 201 3.5 6.1 0.00 0.00 0.00 70 1003.8
20260505053304 68 201 3.5 7.0 0.00 0.00 0.00 69 1003.9
20260505052804 68 198 4.3 5.2 0.00 0.00 0.00 69 1003.9
20260505051804 68 215 4.3 8.7 0.00 0.00 0.00 69 1004.0
20260505050812 68 219 4.3 7.0 0.00 0.00 0.00 70 1004.0
20260505050303 68 189 2.6 7.0 0.00 0.00 0.00 70 1004.0
20260505041304 70 213 0.9 2.6 0.00 0.00 0.00 66 1004.5
20260505040804 70 197 2.6 6.1 0.00 0.00 0.00 65 1004.5
20260505035304 71 211 3.5 7.0 0.00 0.00 0.00 65 1004.8
20260505034804 71 198 3.5 6.1 0.00 0.00 0.00 65 1004.9
20260505034304 71 193 1.7 5.2 0.00 0.00 0.00 65 1005.0
20260505033806 71 200 2.6 5.2 0.00 0.00 0.00 64 1005.0
20260505033304 71 205 2.6 5.2 0.00 0.00 0.00 65 1005.0
20260505032803 71 217 2.6 6.1 0.00 0.00 0.00 64 1005.0
20260505032304 71 211 2.6 4.3 0.00 0.00 0.00 66 1005.0
20260505031803 71 222 2.6 4.3 0.00 0.00 0.00 65 1004.9
20260505031304 71 206 1.7 6.1 0.00 0.00 0.00 65 1004.8
20260505030803 71 231 0.9 4.3 0.00 0.00 0.00 64 1004.8
20260505030303 71 226 1.7 4.3 0.00 0.00 0.00 64 1004.7
20260505025804 71 257 2.6 4.3 0.00 0.00 0.00 63 1004.7
20260505025305 72 252 2.6 7.0 0.00 0.00 0.00 63 1004.5
20260505024803 72 215 1.7 4.3 0.00 0.00 0.00 62 1004.4
20260505023803 72 243 1.7 5.2 0.00 0.00 0.00 62 1004.2
20260505022304 72 229 5.2 12.2 0.00 0.00 0.00 62 1003.9
20260505021804 72 227 6.1 13.0 0.00 0.00 0.00 62 1003.8
20260505020803 72 209 6.1 8.7 0.00 0.00 0.00 62 1003.4
20260505020303 73 221 4.3 7.8 0.00 0.00 0.00 62 1003.5
20260505015803 73 233 5.2 10.4 0.00 0.00 0.00 61 1003.5
20260505015304 73 201 6.1 11.3 0.00 0.00 0.00 61 1003.2
20260505014804 73 204 6.1 11.3 0.00 0.00 0.00 62 1003.0
20260505014304 73 198 6.1 10.4 0.00 0.00 0.00 62 1002.8
20260505013804 73 200 7.0 12.2 0.00 0.00 0.00 62 1002.8
20260505013304 74 197 6.1 13.0 0.00 0.00 0.00 62 1002.8
20260505012804 74 203 8.7 13.9 0.00 0.00 0.00 61 1002.8
20260505012304 74 200 9.6 13.0 0.00 0.00 0.00 62 1002.8
20260505011804 74 189 7.0 12.2 0.00 0.00 0.00 62 1003.0
20260505011303 74 215 5.2 7.8 0.00 0.00 0.00 62 1003.2
20260505010804 75 200 4.3 7.8 0.00 0.00 0.00 62 1003.0
20260505010304 75 190 5.2 11.3 0.00 0.00 0.00 60 1002.9
20260505005804 75 208 7.0 13.0 0.00 0.00 0.00 60 1002.7
20260505004804 75 202 7.0 12.2 0.00 0.00 0.00 59 1002.9
20260505003804 76 211 8.7 12.2 0.00 0.00 0.00 59 1003.0
20260505003304 76 217 7.8 11.3 0.00 0.00 0.00 60 1003.0
20260505002804 76 210 7.8 13.0 0.00 0.00 0.00 60 1002.8
20260505002304 76 223 7.0 11.3 0.00 0.00 0.00 60 1002.8
20260505001304 77 216 8.7 13.9 0.00 0.00 0.00 59 1002.7
20260505000804 77 203 8.7 12.2 0.00 0.00 0.00 58 1002.6
20260504235804 78 203 7.8 13.9 0.00 0.00 0.00 57 1002.5
20260504235304 78 209 7.8 13.9 0.00 0.00 0.00 56 1002.4
20260504234803 78 204 7.8 13.0 0.00 0.00 0.00 56 1002.4
20260504234304 78 194 6.1 13.0 0.00 0.00 0.00 56 1002.4
20260504233804 78 206 10.4 13.9 0.00 0.00 0.00 55 1002.4
20260504233304 78 201 7.8 12.2 0.00 0.00 0.00 55 1002.4
20260504232803 78 206 8.7 12.2 0.00 0.00 0.00 54 1002.4
20260504232304 79 206 7.8 12.2 0.00 0.00 0.00 55 1002.6
20260504231804 79 206 6.1 12.2 0.00 0.00 0.00 55 1002.5
20260504231304 79 203 8.7 13.0 0.00 0.00 0.00 54 1002.5
20260504230304 79 208 6.1 11.3 0.00 0.00 0.00 54 1002.5
20260504225804 79 198 6.1 10.4 0.00 0.00 0.00 55 1002.5
20260504225304 79 189 6.1 10.4 0.00 0.00 0.00 54 1002.4
20260504224803 79 205 6.1 10.4 0.00 0.00 0.00 54 1002.5
20260504224304 79 214 7.0 8.7 0.00 0.00 0.00 53 1002.5
20260504223804 80 213 7.8 10.4 0.00 0.00 0.00 53 1002.4
20260504223304 80 225 7.0 10.4 0.00 0.00 0.00 52 1002.4
20260504222305 81 198 6.1 14.8 0.00 0.00 0.00 51 1002.3
20260504221804 81 221 9.6 12.2 0.00 0.00 0.00 49 1002.3
20260504221304 81 195 8.7 13.9 0.00 0.00 0.00 49 1002.3
20260504220804 81 199 7.0 12.2 0.00 0.00 0.00 49 1002.3
20260504220303 81 204 7.0 12.2 0.00 0.00 0.00 49 1002.3
20260504215804 81 189 5.2 11.3 0.00 0.00 0.00 50 1002.4
20260504215304 81 214 9.6 13.9 0.00 0.00 0.00 49 1002.5
20260504214804 81 225 10.4 13.0 0.00 0.00 0.00 48 1002.6